Flag for U.S.A. Weather past 2 weeks in Vevay, Indiana, U.S.A.

Now
74 °F

Partly sunny.


Feels Like: 77 °F
Forecast: 63 / 89 °F
Wind: 6 mph from North

Location: Cincinnati / Northern Kentucky International Airport

Current Time: Jul 5, 2015 at 9:48:57 PM

Latest Report: Jul 5, 2015 at 8:52 PM


Visibility: 10 mi

Pressure: 30.05 "Hg

Humidity: 62%

Dew point: 60 °F

Location of VevayLocation

Historic Weather in Vevay — Graph

°F

Vevay temperature yesterday

Maximum temperature yesterday: 80 °F (at 3:52 PM)
Minimum temperature yesterday: 67 °F (at 3:52 AM)
Average temperature yesterday: 73 °F

Past Weeks' High & Low Weather Summary

 TemperatureHumidityPressure
High88 °F (Jun 23, 2:52 PM)100% (Jul 1, 4:52 AM)30.16 "Hg (Jul 1, 4:52 AM)
Low56 °F (Jun 28, 5:52 AM)33% (Jun 24, 1:52 PM)29.71 "Hg (Jun 27, 4:52 AM)
Average72 °F76%29.93 "Hg
* Reported Jun 20 8:52 PM — Jul 5 8:52 PM, Vevay, Weather by CustomWeather, © 2015

Note: Actual official high and low records may vary slightly from our data, if they occured in-between our weather recording intervals... More about our weather records

Advertising

Vevay weather history for previous 24 hours

 ConditionsComfort  
Time TempWeatherWind HumidityBarometerVisibility
8:52 PM
Sun, Jul 5
74 °FPartly sunny.6 mph62%30.05 "Hg10 mi
7:52 PM76 °FPartly sunny.7 mph60%30.03 "Hg10 mi
6:52 PM78 °FPartly sunny.6 mph56%30.03 "Hg10 mi
5:52 PM78 °FPartly sunny.5 mph54%30.05 "Hg10 mi
4:52 PM78 °FPartly sunny.No wind48%30.06 "Hg10 mi
3:52 PM77 °FPartly sunny.No wind54%30.07 "Hg10 mi
2:52 PM77 °FPartly sunny.7 mph54%30.06 "Hg10 mi
1:52 PM79 °FOvercast.8 mph50%30.06 "Hg10 mi
12:52 PM75 °FMostly cloudy.7 mph62%30.08 "Hg10 mi
11:52 AM74 °FMostly cloudy.7 mph62%30.09 "Hg10 mi
10:52 AM75 °FMostly cloudy.7 mph60%30.08 "Hg10 mi
9:52 AM72 °FMostly cloudy.7 mph64%30.07 "Hg10 mi
8:52 AM70 °FMostly cloudy.7 mph68%30.08 "Hg8 mi
7:52 AM69 °FMostly cloudy.5 mph70%30.08 "Hg7 mi
6:52 AM67 °FMostly cloudy.5 mph76%30.07 "Hg10 mi
5:52 AM67 °FHigh level clouds.3 mph76%30.06 "Hg8 mi
4:52 AM68 °FHigh level clouds.No wind76%30.03 "Hg7 mi
3:52 AM68 °FHigh level clouds.3 mph76%30.03 "Hg8 mi
2:52 AM68 °FHigh level clouds.5 mph76%30.03 "Hg8 mi
1:52 AM70 °FHigh level clouds.3 mph68%30.04 "Hg8 mi
12:52 AM71 °FOvercast.5 mph68%30.03 "Hg8 mi
11:52 PM
Sat, Jul 4
70 °FHigh level clouds.No wind76%30.03 "Hg9 mi
10:52 PM73 °FMostly cloudy.6 mph66%30.02 "Hg9 mi
9:52 PM74 °FPartly sunny.6 mph67%30.00 "Hg9 mi
Weather by CustomWeather, © 2015

See weather overviewHow to use our weather pages